| time (UTC) | temp F | wind direction | speed MPH | gust MPH | rain 1hr in | rain 24hr in | rain mn in | humidity % | barometer mb |
| 20260507070936 | 56 | 159 | 0.0 | 0.0 | 0.00 | 0.04 | 0.04 | 94 | 1009.5 |
| 20260507070434 | 56 | 140 | 0.0 | 0.0 | 0.00 | 0.04 | 0.04 | 95 | 1009.7 |
| 20260507065931 | 56 | 157 | 0.0 | 0.0 | 0.00 | 0.04 | 0.04 | 95 | 1009.7 |
| 20260507065427 | 56 | 189 | 0.0 | 0.0 | 0.00 | 0.04 | 0.04 | 95 | 1009.9 |
| 20260507064924 | 56 | 138 | 0.0 | 0.0 | 0.00 | 0.04 | 0.04 | 95 | 1009.7 |
| 20260507064422 | 56 | 133 | 0.0 | 0.0 | 0.00 | 0.04 | 0.04 | 95 | 1009.6 |
| 20260507063920 | 56 | 156 | 0.0 | 0.0 | 0.00 | 0.04 | 0.04 | 94 | 1009.4 |
| 20260507063417 | 56 | 165 | 0.0 | 0.0 | 0.07 | 0.04 | 0.04 | 94 | 1009.2 |
| 20260507062914 | 56 | 131 | 0.0 | 0.0 | 0.07 | 0.04 | 0.04 | 94 | 1009.4 |
| 20260507062411 | 56 | 159 | 0.0 | 0.0 | 0.00 | 0.03 | 0.03 | 94 | 1009.4 |
| 20260507061909 | 56 | 117 | 0.0 | 0.0 | 0.00 | 0.03 | 0.03 | 94 | 1009.7 |
| 20260507061407 | 56 | 152 | 0.0 | 0.0 | 0.00 | 0.03 | 0.03 | 94 | 1009.9 |
| 20260507060905 | 56 | 141 | 0.0 | 0.0 | 0.00 | 0.03 | 0.03 | 94 | 1009.6 |
| 20260507060401 | 56 | 163 | 0.0 | 0.0 | 0.00 | 0.03 | 0.03 | 94 | 1010.1 |
| 20260507055858 | 57 | 23 | 0.0 | 0.0 | 0.00 | 0.03 | 0.03 | 94 | 1009.9 |
| 20260507055353 | 58 | 65 | 0.0 | 0.0 | 0.00 | 0.03 | 0.03 | 94 | 1009.8 |
| 20260507054851 | 58 | 138 | 0.0 | 0.0 | 0.00 | 0.03 | 0.03 | 94 | 1009.7 |
| 20260507054346 | 59 | 137 | 0.0 | 0.0 | 0.00 | 0.03 | 0.03 | 93 | 1009.7 |
| 20260507053844 | 59 | 147 | 0.0 | 0.0 | 0.05 | 0.03 | 0.03 | 92 | 1009.6 |
| 20260507053342 | 59 | 145 | 0.0 | 0.0 | 0.12 | 0.03 | 0.03 | 90 | 1009.5 |
| 20260507052840 | 60 | 136 | 0.0 | 0.0 | 0.12 | 0.02 | 0.02 | 89 | 1009.7 |
| 20260507052336 | 61 | 134 | 0.0 | 0.0 | 0.05 | 0.01 | 0.01 | 87 | 1009.8 |
| 20260507051834 | 61 | 170 | 0.0 | 0.0 | 0.00 | 0.00 | 0.00 | 85 | 1010.1 |
| 20260507051332 | 62 | 139 | 0.0 | 0.0 | 0.00 | 0.00 | 0.00 | 83 | 1010.2 |
| 20260507050828 | 62 | 243 | 0.0 | 0.0 | 0.00 | 0.00 | 0.00 | 83 | 1009.9 |
| 20260507050325 | 62 | 117 | 0.0 | 0.0 | 0.00 | 0.00 | 0.00 | 84 | 1009.9 |
| 20260507045822 | 63 | 138 | 0.0 | 0.0 | 0.00 | 0.00 | 0.00 | 83 | 1009.3 |
| 20260507045318 | 63 | 126 | 0.0 | 0.0 | 0.00 | 0.00 | 0.00 | 82 | 1010.0 |
| 20260507044815 | 64 | 150 | 0.0 | 0.0 | 0.00 | 0.00 | 0.00 | 82 | 1009.6 |
| 20260507044312 | 64 | 122 | 0.0 | 0.0 | 0.00 | 0.00 | 0.00 | 82 | 1009.8 |
| 20260507043808 | 64 | 139 | 0.0 | 0.0 | 0.00 | 0.00 | 0.00 | 82 | 1009.6 |
| 20260507043305 | 64 | 142 | 0.0 | 0.0 | 0.00 | 0.00 | 0.00 | 83 | 1009.2 |
| 20260507042801 | 64 | 134 | 0.0 | 0.0 | 0.00 | 0.00 | 0.00 | 84 | 1009.1 |
| 20260507042256 | 64 | 170 | 0.0 | 0.0 | 0.00 | 0.00 | 0.00 | 83 | 1009.5 |
| 20260507041754 | 64 | 146 | 0.0 | 0.0 | 0.00 | 0.00 | 0.00 | 83 | 1009.3 |
| 20260507041250 | 64 | 135 | 0.0 | 0.0 | 0.00 | 0.00 | 0.00 | 82 | 1008.9 |
| 20260507040747 | 64 | 144 | 0.0 | 0.0 | 0.00 | 0.00 | 0.00 | 82 | 1008.6 |
| 20260507040243 | 64 | 134 | 0.0 | 0.0 | 0.00 | 0.00 | 0.00 | 81 | 1008.7 |
| 20260507035739 | 64 | 137 | 0.0 | 0.0 | 0.00 | 0.14 | 0.14 | 81 | 1008.8 |
| 20260507035235 | 65 | 136 | 0.0 | 0.0 | 0.00 | 0.14 | 0.14 | 81 | 1009.3 |
| 20260507034733 | 65 | 136 | 0.0 | 0.0 | 0.00 | 0.14 | 0.14 | 80 | 1009.2 |
| 20260507034229 | 64 | 137 | 0.0 | 0.0 | 0.00 | 0.14 | 0.14 | 80 | 1009.0 |
| 20260507033728 | 65 | 143 | 0.0 | 0.0 | 0.00 | 0.14 | 0.14 | 82 | 1009.2 |
| 20260507033225 | 64 | 160 | 0.0 | 0.0 | 0.00 | 0.14 | 0.14 | 83 | 1009.0 |
| 20260507032722 | 65 | 185 | 0.0 | 0.0 | 0.00 | 0.14 | 0.14 | 86 | 1009.0 |
| 20260507032218 | 65 | 146 | 0.0 | 0.0 | 0.00 | 0.14 | 0.14 | 85 | 1009.0 |
| 20260507031715 | 66 | 154 | 0.0 | 0.0 | 0.00 | 0.14 | 0.14 | 85 | 1008.9 |
| 20260507031212 | 66 | 137 | 0.0 | 0.0 | 0.00 | 0.14 | 0.14 | 85 | 1008.9 |
| 20260507030709 | 66 | 142 | 0.0 | 0.0 | 0.00 | 0.14 | 0.14 | 86 | 1008.7 |
| 20260507030206 | 66 | 154 | 0.0 | 0.0 | 0.00 | 0.14 | 0.14 | 89 | 1008.8 |
| 20260507025703 | 66 | 146 | 0.0 | 0.0 | 0.00 | 0.14 | 0.14 | 90 | 1008.8 |
| 20260507025200 | 66 | 141 | 0.0 | 0.0 | 0.00 | 0.14 | 0.14 | 90 | 1008.7 |
| 20260507024658 | 66 | 139 | 0.0 | 0.0 | 0.00 | 0.14 | 0.14 | 90 | 1008.5 |
| 20260507024155 | 66 | 150 | 0.0 | 0.0 | 0.00 | 0.14 | 0.14 | 90 | 1008.4 |
| 20260507023650 | 66 | 139 | 0.0 | 0.0 | 0.00 | 0.14 | 0.14 | 91 | 1008.3 |
| 20260507023148 | 66 | 143 | 0.0 | 0.0 | 0.00 | 0.14 | 0.14 | 91 | 1008.4 |
| 20260507022644 | 66 | 142 | 0.0 | 0.0 | 0.00 | 0.14 | 0.14 | 91 | 1008.4 |
| 20260507022135 | 66 | 145 | 0.0 | 0.0 | 0.00 | 0.14 | 0.14 | 91 | 1008.2 |
| 20260507021631 | 66 | 145 | 0.0 | 0.0 | 0.00 | 0.14 | 0.14 | 91 | 1008.4 |
| 20260507021126 | 66 | 147 | 0.0 | 0.0 | 0.00 | 0.14 | 0.14 | 91 | 1008.1 |
| 20260507020625 | 66 | 142 | 0.0 | 0.0 | 0.00 | 0.14 | 0.14 | 91 | 1008.1 |
| 20260507020121 | 66 | 142 | 0.0 | 0.0 | 0.00 | 0.14 | 0.14 | 91 | 1008.1 |
| 20260507015619 | 66 | 139 | 0.0 | 0.0 | 0.00 | 0.14 | 0.14 | 91 | 1007.7 |
| 20260507015117 | 66 | 142 | 0.0 | 0.0 | 0.00 | 0.14 | 0.14 | 91 | 1008.3 |
| 20260507014613 | 66 | 139 | 0.0 | 0.0 | 0.00 | 0.14 | 0.14 | 91 | 1008.2 |
| 20260507014109 | 66 | 139 | 0.0 | 0.0 | 0.00 | 0.14 | 0.14 | 90 | 1008.4 |
| 20260507013606 | 66 | 139 | 0.0 | 0.0 | 0.00 | 0.14 | 0.14 | 90 | 1008.6 |
| 20260507013102 | 66 | 139 | 0.0 | 0.0 | 0.00 | 0.14 | 0.14 | 90 | 1008.6 |
| 20260507012600 | 66 | 137 | 0.0 | 0.0 | 0.00 | 0.14 | 0.14 | 90 | 1008.6 |
| 20260507012056 | 66 | 139 | 0.0 | 0.0 | 0.00 | 0.14 | 0.14 | 90 | 1008.8 |
| 20260507011554 | 66 | 141 | 0.0 | 0.0 | 0.00 | 0.14 | 0.14 | 89 | 1008.6 |
| 20260507011050 | 66 | 143 | 0.0 | 0.0 | 0.00 | 0.14 | 0.14 | 89 | 1008.8 |
| 20260507010544 | 66 | 144 | 0.0 | 0.0 | 0.00 | 0.14 | 0.14 | 89 | 1008.7 |
| 20260507010041 | 67 | 139 | 0.0 | 0.0 | 0.00 | 0.14 | 0.14 | 90 | 1008.4 |
| 20260507005538 | 67 | 139 | 0.0 | 0.0 | 0.00 | 0.14 | 0.14 | 90 | 1008.6 |
| 20260507005029 | 66 | 145 | 0.0 | 0.0 | 0.00 | 0.14 | 0.14 | 89 | 1008.4 |
| 20260507004526 | 66 | 147 | 0.0 | 0.0 | 0.00 | 0.14 | 0.14 | 89 | 1008.2 |
| 20260507004024 | 67 | 139 | 0.0 | 0.0 | 0.00 | 0.14 | 0.14 | 89 | 1008.0 |
| 20260507003519 | 67 | 139 | 0.0 | 0.0 | 0.00 | 0.14 | 0.14 | 89 | 1008.3 |
| 20260507003014 | 67 | 139 | 0.0 | 0.0 | 0.00 | 0.14 | 0.14 | 89 | 1008.0 |
| 20260507002511 | 67 | 141 | 0.0 | 0.0 | 0.00 | 0.14 | 0.14 | 89 | 1008.3 |
| 20260507002007 | 67 | 142 | 0.0 | 0.0 | 0.00 | 0.14 | 0.14 | 89 | 1008.1 |
| 20260507001504 | 68 | 145 | 0.0 | 0.0 | 0.00 | 0.14 | 0.14 | 88 | 1008.2 |
| 20260507001001 | 67 | 142 | 0.0 | 0.0 | 0.00 | 0.14 | 0.14 | 87 | 1008.3 |
| 20260507000456 | 68 | 137 | 0.0 | 0.0 | 0.00 | 0.14 | 0.14 | 87 | 1008.0 |
| 20260506235952 | 68 | 135 | 0.0 | 0.0 | 0.00 | 0.14 | 0.14 | 87 | 1008.2 |
| 20260506235450 | 68 | 136 | 0.0 | 0.0 | 0.00 | 0.14 | 0.14 | 87 | 1008.3 |
| 20260506234940 | 68 | 141 | 0.0 | 0.0 | 0.00 | 0.14 | 0.14 | 87 | 1008.0 |
| 20260506234438 | 68 | 138 | 0.0 | 0.0 | 0.00 | 0.14 | 0.14 | 87 | 1007.9 |
| 20260506233935 | 68 | 135 | 0.0 | 0.0 | 0.00 | 0.14 | 0.14 | 86 | 1007.8 |
| 20260506233431 | 69 | 136 | 0.0 | 0.0 | 0.00 | 0.14 | 0.14 | 86 | 1007.8 |
| 20260506232928 | 69 | 142 | 0.0 | 0.0 | 0.00 | 0.14 | 0.14 | 85 | 1007.8 |
| 20260506232424 | 69 | 142 | 0.0 | 0.0 | 0.00 | 0.14 | 0.14 | 84 | 1007.6 |
| 20260506231920 | 69 | 141 | 0.0 | 0.0 | 0.00 | 0.14 | 0.14 | 84 | 1007.6 |
| 20260506231417 | 69 | 81 | 0.0 | 1.0 | 0.00 | 0.14 | 0.14 | 86 | 1007.6 |
| 20260506230909 | 69 | 145 | 0.0 | 0.0 | 0.00 | 0.14 | 0.14 | 85 | 1007.7 |
| 20260506230406 | 69 | 134 | 0.0 | 0.0 | 0.00 | 0.14 | 0.14 | 84 | 1007.5 |
| 20260506225902 | 69 | 148 | 0.0 | 0.0 | 0.00 | 0.14 | 0.14 | 84 | 1007.7 |
| 20260506225359 | 69 | 156 | 0.0 | 0.0 | 0.00 | 0.14 | 0.14 | 83 | 1007.4 |
| 20260506224856 | 70 | 140 | 0.0 | 0.0 | 0.00 | 0.14 | 0.14 | 84 | 1007.6 |
| 20260506224354 | 70 | 148 | 0.0 | 0.0 | 0.00 | 0.14 | 0.14 | 83 | 1007.6 |
| 20260506223850 | 70 | 138 | 0.0 | 0.0 | 0.00 | 0.14 | 0.14 | 82 | 1007.7 |
| 20260506223345 | 69 | 159 | 0.0 | 0.0 | 0.00 | 0.14 | 0.14 | 82 | 1007.6 |
| 20260506222843 | 70 | 169 | 0.0 | 0.0 | 0.00 | 0.14 | 0.14 | 82 | 1007.2 |
| 20260506222338 | 70 | 141 | 0.0 | 0.0 | 0.00 | 0.14 | 0.14 | 82 | 1007.6 |
| 20260506221836 | 70 | 140 | 0.0 | 0.0 | 0.00 | 0.14 | 0.14 | 81 | 1007.7 |
| 20260506221333 | 70 | 169 | 0.0 | 0.0 | 0.00 | 0.14 | 0.14 | 81 | 1007.7 |
| 20260506220831 | 70 | 137 | 0.0 | 0.0 | 0.00 | 0.14 | 0.14 | 81 | 1007.7 |
| 20260506220326 | 70 | 120 | 0.0 | 0.0 | 0.00 | 0.14 | 0.14 | 80 | 1007.6 |
| 20260506215823 | 70 | 355 | 2.0 | 3.0 | 0.00 | 0.14 | 0.14 | 80 | 1007.6 |
| 20260506215319 | 70 | 252 | 0.0 | 0.0 | 0.00 | 0.14 | 0.14 | 80 | 1007.7 |
| 20260506214815 | 71 | 195 | 0.0 | 0.0 | 0.00 | 0.14 | 0.14 | 81 | 1007.6 |
| 20260506214312 | 70 | 129 | 0.0 | 0.0 | 0.00 | 0.14 | 0.14 | 79 | 1007.5 |
| 20260506213810 | 71 | 132 | 0.0 | 0.0 | 0.00 | 0.14 | 0.14 | 79 | 1007.5 |
| 20260506213307 | 70 | 129 | 0.0 | 0.0 | 0.00 | 0.14 | 0.14 | 80 | 1007.4 |
| 20260506212804 | 70 | 141 | 0.0 | 0.0 | 0.00 | 0.14 | 0.14 | 79 | 1007.4 |
| 20260506212300 | 71 | 76 | 1.0 | 1.0 | 0.00 | 0.14 | 0.14 | 79 | 1007.4 |
| 20260506211755 | 71 | 193 | 0.0 | 0.0 | 0.00 | 0.14 | 0.14 | 78 | 1007.4 |
| 20260506211251 | 71 | 137 | 0.0 | 0.0 | 0.00 | 0.14 | 0.14 | 78 | 1007.2 |
| 20260506210749 | 71 | 151 | 0.0 | 0.0 | 0.00 | 0.14 | 0.14 | 79 | 1007.4 |
| 20260506210245 | 71 | 210 | 0.0 | 0.0 | 0.00 | 0.14 | 0.14 | 78 | 1007.1 |
| 20260506205742 | 71 | 142 | 0.0 | 0.0 | 0.00 | 0.14 | 0.14 | 79 | 1007.1 |
| 20260506205238 | 71 | 144 | 0.0 | 0.0 | 0.00 | 0.14 | 0.14 | 80 | 1007.0 |
| 20260506204735 | 71 | 164 | 0.0 | 0.0 | 0.00 | 0.14 | 0.14 | 80 | 1007.0 |
| 20260506204233 | 71 | 137 | 0.0 | 0.0 | 0.00 | 0.14 | 0.14 | 78 | 1007.1 |
| 20260506203730 | 72 | 125 | 0.0 | 0.0 | 0.00 | 0.14 | 0.14 | 78 | 1007.2 |
| 20260506203227 | 72 | 310 | 1.0 | 2.0 | 0.00 | 0.14 | 0.14 | 77 | 1007.0 |
| 20260506202724 | 72 | 142 | 0.0 | 0.0 | 0.00 | 0.14 | 0.14 | 79 | 1006.8 |
| 20260506202220 | 71 | 190 | 0.0 | 0.0 | 0.00 | 0.14 | 0.14 | 80 | 1007.1 |
| 20260506201712 | 72 | 190 | 0.0 | 0.0 | 0.00 | 0.14 | 0.14 | 77 | 1007.0 |
| 20260506201209 | 72 | 144 | 0.0 | 0.0 | 0.00 | 0.14 | 0.14 | 77 | 1007.1 |
| 20260506200706 | 73 | 134 | 0.0 | 0.0 | 0.00 | 0.14 | 0.14 | 75 | 1006.7 |
| 20260506200203 | 72 | 128 | 0.0 | 0.0 | 0.00 | 0.14 | 0.14 | 76 | 1006.9 |
| 20260506195658 | 72 | 226 | 0.0 | 0.0 | 0.00 | 0.14 | 0.14 | 77 | 1007.0 |
| 20260506195155 | 71 | 136 | 0.0 | 0.0 | 0.00 | 0.14 | 0.14 | 79 | 1007.0 |
| 20260506194647 | 71 | 136 | 0.0 | 0.0 | 0.00 | 0.14 | 0.14 | 77 | 1007.3 |
| 20260506194143 | 72 | 1 | 2.0 | 5.0 | 0.00 | 0.14 | 0.14 | 76 | 1007.3 |
| 20260506193641 | 72 | 174 | 1.0 | 2.0 | 0.00 | 0.14 | 0.14 | 77 | 1007.1 |
| 20260506193138 | 72 | 95 | 0.0 | 0.0 | 0.00 | 0.14 | 0.14 | 77 | 1007.1 |
| 20260506192635 | 71 | 351 | 4.0 | 6.0 | 0.00 | 0.14 | 0.14 | 76 | 1007.3 |
| 20260506192131 | 71 | 106 | 0.0 | 0.0 | 0.00 | 0.14 | 0.14 | 77 | 1007.3 |
| 20260506191628 | 71 | 147 | 0.0 | 0.0 | 0.00 | 0.14 | 0.14 | 78 | 1007.3 |
| 20260506191124 | 70 | 260 | 0.0 | 1.0 | 0.00 | 0.14 | 0.14 | 80 | 1007.1 |
| 20260506190621 | 70 | 74 | 0.0 | 1.0 | 0.00 | 0.14 | 0.14 | 80 | 1007.7 |
| 20260506190118 | 69 | 115 | 0.0 | 0.0 | 0.00 | 0.14 | 0.14 | 81 | 1007.5 |
| 20260506185615 | 70 | 154 | 0.0 | 0.0 | 0.00 | 0.14 | 0.14 | 82 | 1007.6 |
| 20260506185111 | 69 | 179 | 0.0 | 0.0 | 0.00 | 0.14 | 0.14 | 82 | 1007.6 |
| 20260506184609 | 69 | 324 | 2.0 | 3.0 | 0.00 | 0.14 | 0.14 | 81 | 1007.9 |
| 20260506184106 | 70 | 134 | 0.0 | 0.0 | 0.00 | 0.14 | 0.14 | 82 | 1007.6 |
| 20260506183603 | 69 | 26 | 0.0 | 0.0 | 0.00 | 0.14 | 0.14 | 81 | 1007.8 |
| 20260506183058 | 69 | 111 | 0.0 | 1.0 | 0.00 | 0.14 | 0.14 | 82 | 1007.6 |
| 20260506182556 | 69 | 143 | 0.0 | 0.0 | 0.00 | 0.14 | 0.14 | 83 | 1008.0 |
| 20260506182053 | 69 | 243 | 0.0 | 0.0 | 0.00 | 0.14 | 0.14 | 82 | 1008.0 |
| 20260506181551 | 69 | 137 | 0.0 | 0.0 | 0.00 | 0.14 | 0.14 | 84 | 1007.8 |
| 20260506181047 | 69 | 142 | 0.0 | 0.0 | 0.00 | 0.14 | 0.14 | 83 | 1008.0 |
| 20260506180544 | 68 | 92 | 0.0 | 0.0 | 0.00 | 0.14 | 0.14 | 84 | 1008.2 |
| 20260506180041 | 69 | 112 | 0.0 | 0.0 | 0.00 | 0.14 | 0.14 | 87 | 1008.2 |
| 20260506175537 | 68 | 133 | 0.0 | 0.0 | 0.00 | 0.14 | 0.14 | 86 | 1008.1 |
| 20260506175034 | 67 | 173 | 0.0 | 0.0 | 0.00 | 0.14 | 0.14 | 87 | 1008.1 |
| 20260506174533 | 67 | 167 | 0.0 | 0.0 | 0.00 | 0.14 | 0.14 | 89 | 1008.4 |
| 20260506174028 | 67 | 297 | 0.0 | 0.0 | 0.00 | 0.14 | 0.14 | 88 | 1008.2 |
| 20260506173526 | 67 | 343 | 1.0 | 2.0 | 0.00 | 0.14 | 0.14 | 89 | 1008.1 |
| 20260506173023 | 66 | 148 | 0.0 | 0.0 | 0.00 | 0.14 | 0.14 | 90 | 1008.4 |
| 20260506172520 | 66 | 136 | 0.0 | 0.0 | 0.00 | 0.14 | 0.14 | 91 | 1008.5 |
| 20260506172016 | 65 | 128 | 0.0 | 0.0 | 0.00 | 0.14 | 0.14 | 92 | 1008.3 |
| 20260506171514 | 65 | 118 | 0.0 | 0.0 | 0.00 | 0.14 | 0.14 | 95 | 1008.4 |
| 20260506171011 | 64 | 166 | 0.0 | 0.0 | 0.00 | 0.14 | 0.14 | 95 | 1008.4 |
| 20260506170508 | 64 | 172 | 0.0 | 0.0 | 0.00 | 0.14 | 0.14 | 96 | 1008.2 |
| 20260506170005 | 64 | 123 | 0.0 | 0.0 | 0.00 | 0.14 | 0.14 | 97 | 1008.5 |
| 20260506165504 | 63 | 19 | 0.0 | 2.0 | 0.00 | 0.14 | 0.14 | 97 | 1008.6 |
| 20260506164954 | 63 | 74 | 0.0 | 0.0 | 0.00 | 0.14 | 0.14 | 97 | 1008.8 |
| 20260506164451 | 63 | 172 | 0.0 | 0.0 | 0.00 | 0.14 | 0.14 | 98 | 1008.7 |
| 20260506163949 | 63 | 111 | 0.0 | 0.0 | 0.00 | 0.14 | 0.14 | 98 | 1008.5 |
| 20260506163444 | 63 | 221 | 0.0 | 0.0 | 0.00 | 0.14 | 0.14 | 98 | 1008.6 |
| 20260506162939 | 64 | 210 | 0.0 | 0.0 | 0.00 | 0.14 | 0.14 | 98 | 1008.5 |
| 20260506162437 | 64 | 100 | 0.0 | 0.0 | 0.00 | 0.14 | 0.14 | 98 | 1008.4 |
| 20260506161934 | 63 | 181 | 0.0 | 0.0 | 0.00 | 0.14 | 0.14 | 98 | 1008.4 |
| 20260506161432 | 63 | 138 | 0.0 | 0.0 | 0.00 | 0.14 | 0.14 | 98 | 1008.4 |
| 20260506160929 | 62 | 139 | 0.0 | 0.0 | 0.00 | 0.14 | 0.14 | 98 | 1008.9 |
| 20260506160426 | 62 | 134 | 0.0 | 0.0 | 0.00 | 0.14 | 0.14 | 98 | 1009.2 |
| 20260506155923 | 62 | 140 | 0.0 | 0.0 | 0.00 | 0.14 | 0.14 | 98 | 1009.2 |
| 20260506155420 | 62 | 122 | 0.0 | 0.0 | 0.07 | 0.14 | 0.14 | 98 | 1009.2 |
| 20260506153543 | 62 | 113 | 0.0 | 0.0 | 0.05 | 0.13 | 0.13 | 97 | 1009.0 |
| 20260506153040 | 62 | 128 | 0.0 | 0.0 | 0.05 | 0.13 | 0.13 | 97 | 1009.3 |
| 20260506152537 | 62 | 124 | 0.0 | 0.0 | 0.00 | 0.12 | 0.12 | 97 | 1009.3 |
| 20260506152035 | 62 | 142 | 0.0 | 0.0 | 0.00 | 0.12 | 0.12 | 97 | 1009.7 |
| 20260506151533 | 62 | 132 | 0.0 | 0.0 | 0.07 | 0.12 | 0.12 | 96 | 1009.8 |
| 20260506151030 | 62 | 128 | 0.0 | 0.0 | 0.07 | 0.12 | 0.12 | 96 | 1009.7 |
| 20260506150526 | 62 | 138 | 0.0 | 0.0 | 0.17 | 0.11 | 0.11 | 96 | 1009.8 |
| 20260506150023 | 62 | 138 | 0.0 | 0.0 | 0.24 | 0.11 | 0.11 | 96 | 1009.8 |
| 20260506145520 | 62 | 129 | 0.0 | 0.0 | 0.14 | 0.08 | 0.08 | 95 | 1009.8 |
| 20260506145017 | 62 | 160 | 0.0 | 0.0 | 0.12 | 0.07 | 0.07 | 95 | 1010.0 |
| 20260506144514 | 62 | 143 | 0.0 | 0.0 | 0.12 | 0.06 | 0.06 | 94 | 1010.0 |
| 20260506144011 | 62 | 144 | 0.0 | 0.0 | 0.12 | 0.05 | 0.05 | 94 | 1009.6 |
| 20260506143509 | 62 | 137 | 0.0 | 0.0 | 0.05 | 0.04 | 0.04 | 94 | 1009.8 |
| 20260506143007 | 62 | 138 | 0.0 | 0.0 | 0.00 | 0.03 | 0.03 | 93 | 1009.7 |
| 20260506142504 | 63 | 133 | 0.0 | 0.0 | 0.07 | 0.03 | 0.03 | 92 | 1009.8 |
| 20260506142003 | 63 | 129 | 0.0 | 0.0 | 0.12 | 0.03 | 0.03 | 91 | 1009.5 |
| 20260506141500 | 63 | 81 | 0.0 | 0.0 | 0.05 | 0.02 | 0.02 | 90 | 1009.9 |
| 20260506140958 | 63 | 137 | 0.0 | 0.0 | 0.00 | 0.01 | 0.01 | 90 | 1009.7 |
| 20260506140455 | 64 | 144 | 0.0 | 0.0 | 0.00 | 0.01 | 0.01 | 89 | 1009.8 |
| 20260506135952 | 64 | 90 | 0.0 | 0.0 | 0.07 | 0.01 | 0.01 | 88 | 1010.0 |
| 20260506135449 | 64 | 189 | 0.0 | 0.0 | 0.07 | 0.01 | 0.01 | 85 | 1010.3 |
| 20260506134945 | 65 | 140 | 0.0 | 0.0 | 0.00 | 0.00 | 0.00 | 83 | 1010.1 |
| 20260506134441 | 65 | 313 | 0.0 | 0.0 | 0.00 | 0.00 | 0.00 | 82 | 1010.3 |
| 20260506133938 | 66 | 144 | 0.0 | 0.0 | 0.00 | 0.00 | 0.00 | 82 | 1009.9 |
| 20260506133435 | 65 | 140 | 0.0 | 0.0 | 0.00 | 0.00 | 0.00 | 81 | 1010.0 |
| 20260506132932 | 65 | 129 | 0.0 | 0.0 | 0.00 | 0.00 | 0.00 | 81 | 1009.6 |
| 20260506132429 | 65 | 129 | 0.0 | 0.0 | 0.00 | 0.00 | 0.00 | 80 | 1009.6 |
| 20260506131926 | 66 | 208 | 0.0 | 0.0 | 0.00 | 0.00 | 0.00 | 81 | 1009.8 |
| 20260506131423 | 66 | 135 | 0.0 | 0.0 | 0.00 | 0.00 | 0.00 | 79 | 1009.5 |
| 20260506130920 | 67 | 132 | 0.0 | 0.0 | 0.00 | 0.00 | 0.00 | 77 | 1009.6 |
| 20260506130416 | 66 | 135 | 0.0 | 0.0 | 0.00 | 0.00 | 0.00 | 77 | 1009.5 |
| 20260506125914 | 66 | 150 | 0.0 | 0.0 | 0.00 | 0.00 | 0.00 | 78 | 1009.3 |
| 20260506125412 | 66 | 124 | 0.0 | 0.0 | 0.00 | 0.00 | 0.00 | 79 | 1009.7 |
| 20260506124910 | 66 | 127 | 0.0 | 0.0 | 0.00 | 0.00 | 0.00 | 79 | 1009.6 |
| 20260506124407 | 66 | 136 | 0.0 | 0.0 | 0.00 | 0.00 | 0.00 | 79 | 1009.7 |
| 20260506123905 | 66 | 133 | 0.0 | 0.0 | 0.00 | 0.00 | 0.00 | 79 | 1009.6 |
| 20260506123403 | 66 | 125 | 0.0 | 0.0 | 0.00 | 0.00 | 0.00 | 79 | 1009.6 |
| 20260506122900 | 66 | 142 | 0.0 | 0.0 | 0.00 | 0.00 | 0.00 | 80 | 1009.6 |
| 20260506122356 | 65 | 153 | 0.0 | 0.0 | 0.00 | 0.00 | 0.00 | 80 | 1009.9 |
| 20260506121855 | 66 | 128 | 0.0 | 0.0 | 0.00 | 0.00 | 0.00 | 81 | 1010.0 |
| 20260506121352 | 66 | 112 | 0.0 | 1.0 | 0.00 | 0.00 | 0.00 | 78 | 1009.9 |
| 20260506120848 | 66 | 146 | 0.0 | 0.0 | 0.00 | 0.00 | 0.00 | 78 | 1009.8 |
| 20260506120346 | 66 | 86 | 0.0 | 0.0 | 0.00 | 0.00 | 0.00 | 78 | 1009.6 |
| 20260506115844 | 66 | 131 | 0.0 | 0.0 | 0.00 | 0.00 | 0.00 | 78 | 1009.7 |
| 20260506115342 | 66 | 135 | 0.0 | 0.0 | 0.00 | 0.00 | 0.00 | 78 | 1009.7 |
| 20260506114839 | 66 | 225 | 0.0 | 0.0 | 0.00 | 0.00 | 0.00 | 78 | 1009.3 |
| 20260506114337 | 66 | 152 | 0.0 | 0.0 | 0.00 | 0.00 | 0.00 | 78 | 1009.5 |
| 20260506113835 | 66 | 107 | 0.0 | 0.0 | 0.00 | 0.00 | 0.00 | 78 | 1009.5 |
| 20260506113333 | 66 | 135 | 0.0 | 0.0 | 0.00 | 0.00 | 0.00 | 78 | 1009.3 |
| 20260506112829 | 66 | 137 | 0.0 | 0.0 | 0.00 | 0.00 | 0.00 | 78 | 1009.3 |
| 20260506112326 | 66 | 135 | 0.0 | 0.0 | 0.00 | 0.00 | 0.00 | 79 | 1009.5 |
| 20260506111824 | 65 | 131 | 0.0 | 0.0 | 0.00 | 0.00 | 0.00 | 79 | 1009.3 |
| 20260506111322 | 65 | 221 | 0.0 | 0.0 | 0.00 | 0.00 | 0.00 | 79 | 1009.4 |
| 20260506110819 | 65 | 89 | 0.0 | 0.0 | 0.00 | 0.00 | 0.00 | 79 | 1009.2 |
| 20260506110316 | 65 | 131 | 0.0 | 0.0 | 0.00 | 0.00 | 0.00 | 79 | 1009.1 |
| 20260506105813 | 65 | 134 | 0.0 | 0.0 | 0.00 | 0.00 | 0.00 | 79 | 1009.3 |
| 20260506105309 | 65 | 142 | 0.0 | 0.0 | 0.00 | 0.00 | 0.00 | 79 | 1008.8 |
| 20260506104807 | 65 | 161 | 0.0 | 0.0 | 0.00 | 0.00 | 0.00 | 79 | 1009.1 |
| 20260506104304 | 65 | 142 | 0.0 | 0.0 | 0.00 | 0.00 | 0.00 | 79 | 1009.3 |
| 20260506103802 | 65 | 157 | 0.0 | 0.0 | 0.00 | 0.00 | 0.00 | 79 | 1009.1 |
| 20260506103259 | 65 | 140 | 0.0 | 0.0 | 0.00 | 0.00 | 0.00 | 80 | 1009.2 |
| 20260506102756 | 65 | 132 | 0.0 | 0.0 | 0.00 | 0.00 | 0.00 | 80 | 1009.1 |
| 20260506102254 | 64 | 139 | 0.0 | 0.0 | 0.00 | 0.00 | 0.00 | 80 | 1009.2 |
| 20260506101751 | 64 | 126 | 0.0 | 0.0 | 0.00 | 0.00 | 0.00 | 81 | 1009.1 |
| 20260506101247 | 64 | 143 | 0.0 | 0.0 | 0.00 | 0.00 | 0.00 | 80 | 1009.0 |
| 20260506100745 | 64 | 162 | 0.0 | 0.0 | 0.00 | 0.00 | 0.00 | 80 | 1009.0 |
| 20260506100243 | 65 | 139 | 0.0 | 0.0 | 0.00 | 0.00 | 0.00 | 80 | 1008.9 |
| 20260506095742 | 64 | 138 | 0.0 | 0.0 | 0.00 | 0.00 | 0.00 | 81 | 1009.2 |
| 20260506095238 | 64 | 139 | 0.0 | 0.0 | 0.00 | 0.00 | 0.00 | 80 | 1009.4 |
| 20260506094735 | 64 | 129 | 0.0 | 0.0 | 0.00 | 0.00 | 0.00 | 80 | 1008.8 |
| 20260506094233 | 64 | 127 | 0.0 | 0.0 | 0.00 | 0.00 | 0.00 | 81 | 1009.1 |
| 20260506093732 | 64 | 141 | 0.0 | 0.0 | 0.00 | 0.00 | 0.00 | 81 | 1009.0 |
| 20260506093228 | 64 | 134 | 0.0 | 0.0 | 0.00 | 0.00 | 0.00 | 81 | 1009.1 |
| 20260506092726 | 64 | 144 | 0.0 | 0.0 | 0.00 | 0.00 | 0.00 | 81 | 1009.2 |
| 20260506092224 | 64 | 144 | 0.0 | 0.0 | 0.00 | 0.00 | 0.00 | 81 | 1009.2 |
| 20260506091721 | 65 | 129 | 0.0 | 0.0 | 0.00 | 0.00 | 0.00 | 81 | 1009.3 |
| 20260506091218 | 65 | 161 | 0.0 | 0.0 | 0.00 | 0.00 | 0.00 | 80 | 1009.2 |
| 20260506090716 | 65 | 142 | 0.0 | 0.0 | 0.00 | 0.00 | 0.00 | 80 | 1009.1 |
| 20260506090213 | 65 | 138 | 0.0 | 0.0 | 0.00 | 0.00 | 0.00 | 80 | 1009.2 |
| 20260506085710 | 65 | 129 | 0.0 | 0.0 | 0.00 | 0.00 | 0.00 | 80 | 1009.3 |
| 20260506085206 | 65 | 157 | 0.0 | 0.0 | 0.00 | 0.00 | 0.00 | 80 | 1009.3 |
| 20260506084703 | 65 | 130 | 0.0 | 0.0 | 0.00 | 0.00 | 0.00 | 79 | 1009.1 |
| 20260506084159 | 65 | 143 | 0.0 | 0.0 | 0.00 | 0.00 | 0.00 | 79 | 1009.2 |
| 20260506083656 | 66 | 146 | 0.0 | 0.0 | 0.00 | 0.00 | 0.00 | 78 | 1009.2 |
| 20260506083154 | 66 | 157 | 0.0 | 0.0 | 0.00 | 0.00 | 0.00 | 78 | 1009.3 |
| 20260506082650 | 66 | 140 | 0.0 | 0.0 | 0.00 | 0.00 | 0.00 | 77 | 1009.3 |
| 20260506082145 | 66 | 139 | 0.0 | 0.0 | 0.00 | 0.00 | 0.00 | 76 | 1009.1 |
| 20260506081644 | 66 | 118 | 0.0 | 0.0 | 0.00 | 0.00 | 0.00 | 76 | 1009.1 |
| 20260506081141 | 66 | 154 | 0.0 | 0.0 | 0.00 | 0.00 | 0.00 | 76 | 1009.1 |
| 20260506080639 | 66 | 150 | 0.0 | 0.0 | 0.00 | 0.00 | 0.00 | 76 | 1009.0 |
| 20260506080135 | 67 | 131 | 0.0 | 0.0 | 0.00 | 0.00 | 0.00 | 76 | 1009.2 |
| 20260506073119 | 68 | 154 | 0.0 | 0.0 | 0.00 | 0.00 | 0.00 | 74 | 1009.4 |
| 20260506072615 | 68 | 139 | 0.0 | 0.0 | 0.00 | 0.00 | 0.00 | 74 | 1009.3 |
| 20260506072114 | 68 | 138 | 0.0 | 0.0 | 0.00 | 0.00 | 0.00 | 74 | 1009.6 |
| 20260506071611 | 68 | 136 | 0.0 | 0.0 | 0.00 | 0.00 | 0.00 | 73 | 1009.4 |